Location: Hohe Wand Kleine Kanzel
(47.8330°N, 16.0170°E)
Time: 04:14:31
(UTC+02:00)

S-56A Canister/Altair - Visible Passes

Search period start: 06 August 2021 00:00
Search period end: 16 August 2021 00:00
Orbit: 631 x 2501 km, 38.9° (Epoch: 05 August)

Date Brightness Start Highest point End Pass type
(mag) Time Alt. Az. Time Alt. Az. Time Alt. Az.
06 Aug 11.1 20:41:32 10° W 20:52:43 26° SW 21:02:54 10° S visible
08 Aug 11.6 21:48:39 10° WSW 21:49:30 10° WSW 21:50:19 10° SW visible
09 Aug 11.6 21:11:13 10° WSW 21:16:34 13° SW 21:21:46 10° SSW visible
10 Aug 11.6 20:36:18 10° W 20:43:35 15° SW 20:50:42 10° SSW visible
